WorldView Legion 3

operational
NORAD ID: 60452 Int'l Des: 2024-146 Owner: MAXARI Country: US
LEOCIRCULAR

About WorldView Legion 3

Description loading...

Live Position

Loading 3D Globe...

Upcoming Passes

Altitude History

Altitude vs Time

uPlot chart will show altitude changes over time

Two-Line Element Set

1 60452U 24146A 26062.48376869 .00007080 00000-0 37427-3 0 9992
2 60452 44.9995 237.1998 0013795 287.3034 72.6335 15.16061744 85981
Epoch: Mar 3, 2026 • Age: 17 hours

Current Status

Altitude 523.8 km
Velocity 7.60 km/s
Sub-Earth Point 18.07°N, 19.92°W
Launch Date Aug 15, 2024
Age 1.5 years
Type earth observation

Technical Details

Classification Payload
Mass 700.00 kg
Dry Mass 630.00 kg
Total Mass 700.00 kg
Length 3.00 m
Diameter 2.00 m
Span 5.00 m
Shape Box + panel
Manufacturer MAXSI
Bus Type Legion
Phase Status In Orbit
Owner/State MAXARI/US

Large Constellations

Loading constellations...